Location: Franzen
(48.6167°N, 15.3833°E)
Time: 13:12:40
(UTC+00:00)

Transit 2A Rocket - Pass Details

Date: 06 August 2021
Orbit: 586 x 917 km, 66.7° (Epoch: 27 September)

Event Time Altitude Azimuth Distance (km) Brightness Sun altitude
Rises 18:55:54 0° 327° (NNW) 3,220 9.6 -4.8°
Reaches altitude 10° 18:58:25 10° 337° (NNW) 2,347 8.5 -5.2°
Maximum altitude 19:03:22 34° 42° (NE) 1,336 6.2 -5.8°
Drops below altitude 10° 19:08:39 10° 107° (ESE) 2,521 7.1 -6.6°
Enters shadow 19:09:27 - 110° (ESE) 2,788 7.3 -6.7°
